Theta_e
307 307 308 307 307 307 307 307 307 308 308 308 308 309 309 309 308 310 313 314 314 314 312 316 319 315 318 323 321 319 320 321 321 321 322 324 321 322 322 322 323 324 325 341 346
307 307 307 307 307 307 307 307 307 307 307 308 308 308 308 308 308 309 309 310 312 312 314 314 316 321 319 322 323 321 320 321 322 323 323 323 322 321 320 320 321 322 325 337 344
306 306 306 306 306 306 306 306 306 306 307 307 307 308 307 307 310 314 315 314 313 312 311 313 314 320 321 321 324 321 320 321 321 322 323 322 322 321 320 321 321 321 323 332 342
306 305 305 306 306 306 306 306 306 306 307 307 307 306 307 307 309 322 314 313 314 313 314 315 317 318 322 321 323 321 319 320 321 322 321 321 321 321 321 321 322 322 322 326 335
305 305 305 305 305 305 306 306 306 306 307 307 307 307 308 310 310 308 313 314 319 318 316 319 318 318 320 321 322 323 321 320 320 321 321 319 320 320 321 321 322 321 321 321 330
304 305 305 305 306 306 306 305 305 305 306 308 308 307 309 311 306 306 308 311 316 316 320 319 319 318 319 321 321 321 321 321 320 319 319 318 319 319 320 321 321 320 320 320 321
304 304 305 306 305 305 305 305 305 305 306 308 309 309 310 311 307 306 307 308 309 311 316 320 319 318 319 321 321 321 321 320 320 319 319 319 318 319 320 320 319 319 319 320 320
304 304 305 306 305 305 305 305 303 304 304 305 310 309 311 309 308 308 308 308 309 311 311 314 319 318 318 319 318 319 320 321 321 319 319 318 319 319 320 320 319 319 320 320 321
304 304 305 305 306 305 305 303 304 306 304 308 311 310 312 308 309 309 309 309 308 309 312 315 315 320 319 318 318 319 320 320 321 321 319 318 318 320 321 320 320 320 320 320 321
304 305 304 305 305 305 304 305 308 309 308 309 309 311 311 310 308 309 308 311 312 310 310 317 319 320 321 320 323 321 321 321 320 322 320 320 320 321 321 320 321 321 320 320 320
304 305 304 304 304 304 306 310 311 313 311 310 311 311 310 310 308 308 308 308 313 311 311 312 319 323 323 321 320 322 323 322 322 321 320 320 321 321 321 321 321 322 322 321 321
303 303 304 304 304 303 306 311 309 308 309 309 309 309 309 309 309 310 306 312 313 314 313 311 313 317 320 321 322 322 324 324 323 322 320 321 321 321 321 321 321 322 322 322 322
301 302 304 304 304 308 309 309 307 307 309 310 310 309 310 311 311 311 308 308 314 315 316 313 311 312 317 321 322 322 323 324 324 322 322 321 322 322 322 322 321 322 322 322 322
301 301 302 303 307 309 310 308 308 306 312 313 311 310 311 312 314 312 311 308 311 315 314 315 312 313 313 317 320 323 322 323 322 323 322 321 324 324 323 322 322 322 322 323 323
300 301 303 303 308 310 308 307 307 307 322 313 312 311 312 312 313 313 311 312 314 311 312 318 314 315 315 314 318 321 321 322 324 324 323 322 323 325 323 323 322 322 322 323 323
300 302 303 308 308 308 307 308 308 317 322 316 312 312 313 314 315 316 314 312 310 314 313 311 314 314 316 315 316 319 321 322 323 324 325 325 323 324 325 324 323 323 322 322 323
301 304 303 306 309 307 308 311 320 319 314 314 313 313 314 316 315 318 318 315 316 317 315 311 310 314 315 316 315 318 322 324 324 323 326 325 323 326 326 324 323 323 322 322 323
302 306 309 307 307 308 311 316 320 315 314 311 312 314 318 315 316 314 315 318 314 317 318 316 310 314 315 316 317 320 324 327 327 326 324 324 324 323 328 327 324 322 325 327 328
305 309 309 306 308 309 316 320 316 315 313 313 313 315 315 315 314 317 318 320 317 317 318 319 311 313 315 319 318 319 323 324 321 322 323 325 329 335 333 333 334 334 333 332 330
306 309 310 307 309 311 316 313 313 311 312 314 317 315 317 315 315 316 319 319 317 317 317 321 314 312 317 318 320 321 322 325 323 325 324 324 330 333 334 336 335 335 333 334 334
309 312 308 309 310 312 315 313 311 310 311 315 316 316 315 315 315 317 321 317 314 315 318 320 322 317 315 317 323 321 322 324 323 323 327 327 328 330 333 334 334 332 331 332 333
310 312 308 309 312 311 312 310 309 310 311 312 313 314 313 313 316 316 321 314 313 315 320 318 323 318 317 319 318 318 321 323 325 327 326 326 340 330 333 334 332 332 332 333 332
311 311 309 310 314 312 310 310 311 311 312 313 313 313 311 314 316 317 317 316 315 316 317 319 324 326 323 320 321 322 321 320 325 328 328 329 345 336 333 332 331 331 329 330 330
309 309 309 310 310 310 311 311 311 311 311 311 313 313 314 314 314 318 317 316 315 316 317 319 323 324 326 323 324 325 322 322 325 328 326 331 339 334 331 330 329 327 326 325 325
308 308 307 310 310 309 310 311 311 312 310 311 313 313 315 314 315 317 315 315 315 318 319 317 326 319 323 321 319 321 325 323 325 325 328 338 337 332 328 326 325 324 323 323 323
307 306 306 308 310 312 310 312 310 311 311 314 313 314 315 317 316 316 316 316 317 317 318 320 330 323 322 323 326 323 322 321 322 324 327 332 336 329 324 323 323 323 323 323 322
304 303 305 308 311 311 311 310 311 312 312 312 313 315 315 315 315 315 316 318 318 318 320 323 326 325 330 327 322 326 322 323 323 323 327 337 330 325 324 323 323 323 323 322 321
Wind_Speed
18 19 19 20 20 20 20 20 20 19 19 19 19 19 21 24 29 28 28 26 14 26 16 11 15 25 25 20 23 20 17 21 27 25 20 16 10 11 14 17 16 10 15 11 12
19 19 20 21 22 22 22 22 22 21 21 20 19 18 20 22 27 34 37 35 31 25 24 22 20 20 20 23 22 22 18 30 22 21 22 14 14 14 14 14 15 15 16 8 11
20 20 21 22 23 23 23 22 22 22 23 22 21 19 19 18 22 9 7 15 32 26 24 25 29 22 25 21 28 28 27 20 22 19 16 13 16 16 15 16 17 19 16 13 12
22 22 23 24 25 26 26 25 25 25 24 24 21 19 18 15 9 8 11 5 16 20 22 26 25 27 27 31 28 27 28 27 25 16 13 16 14 17 16 15 10 14 16 15 14
25 25 26 27 28 29 30 32 31 29 27 26 23 18 15 14 22 30 14 7 5 11 22 22 26 28 31 27 28 33 27 22 24 25 15 16 21 20 19 13 11 5 9 8 10
27 27 28 28 28 30 32 33 36 35 31 26 21 16 14 26 28 28 25 21 20 19 22 23 19 27 25 30 30 24 27 26 20 19 19 19 20 18 19 15 14 11 13 15 16
28 30 30 31 32 34 35 37 33 31 31 24 21 16 15 29 20 28 20 20 23 28 23 27 29 21 29 27 28 22 25 22 27 21 23 19 21 25 18 14 15 17 18 18 19
30 33 33 32 34 36 38 32 30 30 22 14 9 11 10 17 16 27 28 35 27 22 28 32 27 26 23 22 13 27 24 24 24 29 23 21 24 24 21 21 20 19 17 18 18
31 33 35 34 35 37 38 31 32 20 13 5 9 10 13 3 10 11 14 24 29 29 20 22 30 24 21 23 22 17 26 33 26 27 23 24 16 22 20 25 23 21 19 16 15
32 34 37 38 39 38 28 31 30 16 12 17 7 5 14 13 14 5 6 13 14 21 24 16 15 21 23 21 26 31 28 24 27 24 26 25 25 18 22 16 22 20 19 18 18
34 36 39 41 41 29 24 29 15 3 9 17 20 18 23 14 15 24 27 14 14 18 26 26 18 26 38 36 26 24 24 26 20 24 20 25 22 23 14 16 19 19 19 18 19
37 38 41 40 34 14 15 9 13 9 15 19 24 24 26 12 12 11 15 8 11 17 20 25 27 30 29 32 32 31 27 25 24 19 20 21 24 21 19 14 17 18 17 19 18
43 46 44 32 17 11 15 12 13 11 7 13 12 7 6 6 5 18 11 18 14 19 20 24 32 30 29 29 32 29 30 22 21 16 18 20 23 25 23 19 14 13 19 18 18
45 49 42 27 14 19 8 18 11 5 5 7 4 3 6 6 8 18 3 14 18 24 20 23 29 25 33 30 27 27 29 25 18 20 15 23 15 23 22 21 18 16 16 18 19
47 50 28 10 15 11 18 16 9 2 5 9 8 11 19 14 23 2 8 0 15 24 21 18 25 29 31 34 30 24 24 25 19 22 17 20 14 22 22 23 23 20 18 17 18
50 38 19 11 15 15 19 13 1 4 7 13 14 21 22 22 4 8 7 8 4 10 26 25 20 25 23 31 30 25 22 24 17 16 14 21 19 19 23 26 22 21 20 17 18
50 23 8 10 12 21 15 5 6 10 20 15 24 28 21 16 12 11 9 8 6 6 20 24 26 23 21 23 31 24 20 16 15 13 17 20 16 17 23 23 21 23 22 21 15
40 13 11 9 24 15 13 5 10 20 18 24 21 25 2 12 14 10 15 11 17 15 10 19 19 24 17 20 21 27 24 17 28 22 20 24 13 13 14 11 18 23 18 14 13
32 8 9 20 19 11 10 6 8 14 18 15 23 14 15 17 14 9 10 3 4 14 8 15 20 25 23 14 26 33 26 29 20 20 16 17 14 14 11 13 14 18 17 11 12
26 12 4 23 15 13 6 4 10 9 16 13 5 10 17 19 14 15 10 6 6 8 5 7 15 27 23 22 21 27 27 26 19 21 21 21 22 13 15 16 15 15 14 10 11
13 5 15 23 12 8 4 7 16 19 20 3 9 6 10 12 10 8 3 4 4 7 11 6 7 19 23 19 24 16 20 23 23 14 19 15 18 14 23 21 18 16 16 17 15
10 6 14 21 8 7 9 13 15 18 20 7 6 5 4 9 6 8 7 1 7 9 3 5 6 15 28 23 27 24 28 31 13 24 15 12 5 4 26 20 20 19 21 21 21
10 6 5 11 6 9 11 15 15 20 20 8 7 4 2 6 7 11 10 13 4 11 3 6 5 12 21 5 10 18 27 26 23 15 20 11 8 16 22 18 16 19 20 19 19
7 6 6 7 4 13 16 13 17 18 17 15 13 11 8 10 6 9 12 9 20 9 14 8 5 18 17 23 24 27 22 22 22 15 9 9 18 16 19 17 18 18 21 21 20
6 5 4 7 9 16 12 13 22 15 9 16 7 15 21 6 11 5 13 12 10 3 6 4 8 13 5 12 22 23 27 28 25 14 15 25 21 21 22 18 21 21 23 22 21
7 5 6 12 12 13 7 16 18 25 17 10 8 25 19 9 10 19 18 14 5 6 2 7 5 15 8 13 23 22 25 25 21 15 8 19 21 22 21 18 19 19 21 22 21
7 8 4 12 14 11 13 17 21 20 11 20 23 20 20 18 23 24 20 19 15 6 6 5 6 4 8 21 27 25 23 22 11 9 7 12 17 24 21 19 18 19 20 21 21
Wind_Direction
352 348 343 339 336 332 329 326 323 320 318 315 313 311 311 310 309 293 265 251 262 247 253 249 212 215 223 235 229 222 239 238 238 240 244 248 204 228 235 250 238 233 230 88 120
346 343 339 335 331 327 325 321 318 316 313 309 307 307 309 311 303 284 268 259 248 240 223 239 229 210 211 218 222 224 228 236 239 244 249 238 215 217 206 221 224 221 205 121 146
344 341 337 332 328 324 319 315 311 308 305 303 305 306 310 312 297 285 336 276 224 219 234 239 237 216 219 219 215 219 234 232 245 256 260 220 225 230 205 221 213 205 208 178 178
342 339 336 331 326 322 318 315 311 307 301 301 300 301 303 301 272 53 4 55 202 224 229 228 229 224 222 219 216 221 229 246 261 238 254 242 247 233 223 234 245 197 211 174 187
340 338 335 332 328 323 318 315 311 304 302 298 295 292 294 248 246 269 277 266 212 204 216 219 219 225 221 227 218 223 231 236 234 254 225 234 245 243 234 209 237 212 213 216 215
340 337 333 328 322 318 316 313 309 308 303 296 290 277 248 260 259 265 272 247 248 238 229 230 226 225 237 229 230 221 230 237 251 236 236 234 239 236 237 220 227 204 214 224 221
338 335 332 328 324 322 318 312 307 305 300 292 282 255 244 246 270 270 262 248 247 243 249 232 237 223 226 227 238 231 233 233 234 228 237 228 240 232 224 214 206 226 229 233 224
338 335 331 327 324 321 317 309 309 307 300 302 274 228 249 264 285 261 267 269 259 239 237 248 238 248 231 238 224 231 236 230 216 225 222 221 240 224 225 220 217 224 219 216 224
335 332 330 327 323 320 315 310 306 302 283 263 219 204 267 360 249 271 239 257 245 251 258 241 243 235 235 229 220 213 220 224 227 208 215 210 226 245 215 214 222 217 219 212 216
334 330 330 327 323 320 317 315 309 278 255 242 249 230 223 304 299 237 287 279 229 227 239 229 228 223 226 217 214 206 216 221 218 206 206 218 226 254 204 215 208 218 212 216 215
334 331 332 328 324 322 322 322 5 242 225 290 266 255 289 296 290 260 267 3 249 222 211 215 215 209 213 219 226 226 222 219 211 223 197 222 224 219 206 228 200 209 210 210 211
337 335 333 328 323 313 300 342 357 315 297 285 262 258 261 291 288 288 240 157 215 212 226 210 222 225 219 217 227 232 238 214 218 197 186 213 226 209 210 215 199 203 196 199 200
343 341 335 326 323 293 313 2 335 341 286 300 235 265 261 280 311 285 222 215 202 230 220 208 216 225 232 223 215 218 227 232 196 178 206 223 221 224 215 194 201 211 199 199 199
342 341 335 329 304 330 340 340 351 10 283 63 257 312 251 267 278 246 252 243 231 242 198 229 206 214 227 231 219 211 218 231 184 183 204 221 217 212 205 212 214 203 208 190 193
341 340 330 326 306 326 332 334 350 287 299 11 28 323 294 260 265 160 196 28 255 249 246 220 228 213 199 218 221 220 205 221 201 205 201 202 241 196 202 208 203 203 202 192 186
340 338 327 335 287 329 323 324 306 239 348 343 339 320 315 322 67 133 179 193 17 265 253 247 240 228 228 198 225 215 207 206 214 213 206 208 212 225 187 202 187 192 197 188 178
339 336 290 306 318 322 320 272 282 351 350 346 325 329 316 308 314 202 202 170 176 175 230 232 233 246 219 193 204 211 200 189 194 195 207 188 202 247 176 187 179 186 187 185 154
340 330 300 290 328 323 299 270 311 2 353 333 326 312 179 6 335 319 279 271 209 216 213 215 217 222 203 207 193 197 180 195 179 195 197 186 209 204 66 96 195 180 144 137 167
344 330 274 344 335 317 279 316 6 341 336 324 318 333 348 355 339 306 289 249 195 217 210 214 212 184 242 186 213 186 201 208 198 201 196 183 147 78 124 105 89 102 117 161 157
332 310 313 342 323 300 336 346 340 331 340 329 299 332 329 342 329 332 321 62 350 253 224 296 230 182 192 178 218 190 206 202 226 196 220 188 163 156 162 150 121 116 121 142 143
303 291 12 340 289 327 32 324 322 330 337 289 292 287 302 326 303 291 344 17 337 302 244 323 250 213 185 199 193 195 193 216 224 231 203 185 175 158 161 156 141 134 143 150 128
296 337 359 343 34 2 5 333 307 327 339 342 284 276 281 309 290 293 357 235 311 330 245 230 260 196 190 179 221 194 202 208 209 227 249 168 81 170 135 136 137 142 156 137 140
319 303 55 11 23 1 347 308 346 341 337 345 300 274 256 294 303 299 314 336 252 334 202 220 219 196 195 187 266 244 198 207 221 237 220 173 132 91 112 127 139 136 129 130 121
317 344 349 306 9 359 332 336 336 345 326 334 297 316 306 300 283 284 299 320 321 293 245 242 260 202 187 191 182 214 199 200 206 238 214 188 132 120 122 130 129 131 131 128 123
17 18 39 319 339 311 352 317 340 340 325 311 285 327 325 300 302 258 314 311 306 344 357 128 232 186 92 223 195 198 201 194 216 213 217 139 147 145 135 135 135 135 135 132 129
348 354 335 289 287 314 354 348 329 331 330 306 296 319 316 303 292 299 304 306 283 317 292 204 245 145 200 256 233 197 211 186 191 209 75 161 134 140 129 135 139 140 138 130 127
8 320 295 294 337 341 353 330 330 323 322 321 327 317 320 319 308 294 283 274 259 281 313 309 186 112 195 211 182 196 196 192 121 224 147 169 133 133 133 137 144 142 138 128 120